星链-6326 (STARLINK-6326 )

导读 | 星芒AI

STARLINK-6326 是 SpaceX 星链计划中的一颗低轨通信卫星,属于第63批发射的星链卫星群。该卫星旨在为全球用户提供高速互联网服务,支持偏远地区的网络接入。它运行在约550公里高的近地轨道,配备先进通信设备,具备高带宽和低延迟特性。星链项目通过大规模部署此类卫星,构建全球覆盖的宽带网络系统,推动互联网普及与数字经济发展。

基本信息
目录编号:
56787
目录名称:
STARLINK-6326
国际标识:
2023-078W
轨道中心:
EARTH
卫星名称:
星链-6326
卫星全名:
星链-6326 (STARLINK-6326 )
卫星状态:
在轨 (已飞行935 天)
发射日期:
2023-05-31 UTC
国别 :
美国 (US)
星等 :
--
轨道信息
数据来源 国际轨道数据 AOE轨道数据
星历时间 2025-12-21T19:58:12+0800
9小时前
查看轨道信息
2025-12-20T23:00:00+0800
1天前
查看轨道信息
半长轴 6950.168km 6950.167km
偏心率 0.0002659 0.0002756
轨道倾角 69.999° 69.999°
近地点辐角 281.427° 284.537°
升交点赤经 161.508° 163.714°
平近点角 78.659° 43.872°
近地点 570.182km 570.114km
远地点 573.88km 573.946km
周期 96.106分钟 96.106分钟
每日圈数 14.983383 14.983384
详细信息
固有亮度:
5
最大亮度:
2.5
卫星平台:
Starlink v1.5
覆盖范围:
全球
运营商:
太空探索技术公司
运营商所在国:
美国
制造商(研发单位):
太空探索技术公司
制造商所在国:
美国
使用方式:
暂无
卫星简介
星链(Starlink)计划是由太空探索技术公司(SpaceX)提出的一个巨型低轨卫星互联网星座项目,计划在2019年至2024年间在太空搭建由约1.2万颗卫星组成的“星链”网络,其中1584颗将部署在地球上空550千米处的近地轨道,并从2020年开始工作。该卫星仍在工作。
2D轨道图
3D轨道图
轨道高度分析图
轨道倾角分析图
轨道综合分析图
查看轨道综合分析图